ASV609 RKSS-RKPC

Flight info

Callsign ASV609
Flight time 0h 44m
Altitude 34000
Route BULTI2T BULTI Y711 DOTOL DOTOL2P
Aircraft A321/M-SDE3FGHIRWY/LB1

Departure

Time 2025-09-10 02:34
Airport Gimpo International Airport (RKSS)

Arrival

Time 2025-09-10 03:18
Airport Jeju International Airport (RKPC)
Time Latitude Longitude Altitude Speed Heading
2025-09-10 02:14 37.55763 126.80334 67 ft 0 kts 44°
2025-09-10 02:22 37.55760 126.80331 60 ft 2 kts 44°
2025-09-10 02:23 37.55733 126.80296 63 ft 3 kts 45°
2025-09-10 02:23 37.55706 126.80259 57 ft 3 kts 62°
2025-09-10 02:23 37.55699 126.80236 60 ft 3 kts 83°
2025-09-10 02:24 37.55703 126.80205 59 ft 2 kts 131°
2025-09-10 02:24 37.55705 126.80201 57 ft 0 kts 135°
2025-09-10 02:27 37.55661 126.80257 62 ft 8 kts 136°
2025-09-10 02:28 37.55566 126.80301 64 ft 9 kts 212°
2025-09-10 02:28 37.55523 126.80247 62 ft 10 kts 225°
2025-09-10 02:29 37.55356 126.80277 61 ft 11 kts 135°
2025-09-10 02:29 37.55176 126.80505 62 ft 13 kts 134°
2025-09-10 02:30 37.55109 126.80592 61 ft 14 kts 134°
2025-09-10 02:30 37.54970 126.80766 57 ft 12 kts 136°
2025-09-10 02:31 37.54866 126.80810 58 ft 10 kts 224°
2025-09-10 02:31 37.54812 126.80670 60 ft 0 kts 317°
2025-09-10 02:32 37.55308 126.80045 55 ft 126 kts 315°
2025-09-10 02:33 37.57033 126.77848 729 ft 197 kts 315°
2025-09-10 02:33 37.60024 126.73833 2579 ft 238 kts 315°
2025-09-10 02:34 37.62364 126.70423 3439 ft 275 kts 300°
2025-09-10 02:34 37.62816 126.68062 4116 ft 284 kts 270°
2025-09-10 02:35 37.61037 126.63737 5514 ft 291 kts 212°
2025-09-10 02:35 37.57166 126.63006 6858 ft 290 kts 167°
2025-09-10 02:36 37.53150 126.63951 8152 ft 297 kts 167°
2025-09-10 02:36 37.49035 126.64923 9411 ft 305 kts 168°
2025-09-10 02:36 37.46934 126.65412 10030 ft 309 kts 168°
2025-09-10 02:37 37.42465 126.66444 10423 ft 347 kts 168°
2025-09-10 02:38 37.34937 126.68185 11483 ft 376 kts 169°
2025-09-10 02:38 37.29756 126.69379 12612 ft 381 kts 170°
2025-09-10 02:39 37.24517 126.70581 13725 ft 385 kts 170°
2025-09-10 02:39 37.19205 126.71795 14682 ft 390 kts 171°
2025-09-10 02:40 37.13838 126.73025 15626 ft 394 kts 171°
2025-09-10 02:40 37.11135 126.73642 16079 ft 396 kts 171°
2025-09-10 02:40 37.05678 126.74885 17011 ft 401 kts 172°
2025-09-10 02:41 37.00159 126.76148 17909 ft 406 kts 172°
2025-09-10 02:42 36.91763 126.78066 19067 ft 412 kts 172°
2025-09-10 02:42 36.86252 126.79324 19771 ft 416 kts 173°
2025-09-10 02:43 36.80569 126.80615 20460 ft 420 kts 173°
2025-09-10 02:43 36.74789 126.81921 21133 ft 424 kts 173°
2025-09-10 02:43 36.71873 126.82479 21459 ft 423 kts 179°
2025-09-10 02:44 36.65983 126.82736 22104 ft 426 kts 182°
2025-09-10 02:44 36.60035 126.82959 22756 ft 430 kts 182°
2025-09-10 02:45 36.54039 126.83193 23396 ft 433 kts 182°
2025-09-10 02:46 36.44918 126.83539 23963 ft 444 kts 183°
2025-09-10 02:46 36.35446 126.83433 24003 ft 463 kts 189°
2025-09-10 02:47 36.28926 126.82720 24000 ft 476 kts 189°
2025-09-10 02:47 36.22267 126.81990 23997 ft 485 kts 189°
2025-09-10 02:48 36.12096 126.80890 23996 ft 493 kts 189°
2025-09-10 02:49 36.05301 126.80161 23991 ft 493 kts 189°
2025-09-10 02:49 35.95045 126.79049 23991 ft 493 kts 189°
2025-09-10 02:50 35.88199 126.78306 23990 ft 493 kts 189°
2025-09-10 02:50 35.84781 126.77933 23991 ft 494 kts 189°
2025-09-10 02:51 35.77933 126.77188 23993 ft 494 kts 189°
2025-09-10 02:51 35.71093 126.76450 23996 ft 494 kts 189°
2025-09-10 02:52 35.64247 126.75710 23988 ft 494 kts 189°
2025-09-10 02:52 35.57401 126.74981 23985 ft 494 kts 189°
2025-09-10 02:53 35.50555 126.74247 23986 ft 494 kts 189°
2025-09-10 02:53 35.40398 126.73160 23977 ft 487 kts 189°
2025-09-10 02:54 35.37023 126.72796 23975 ft 487 kts 189°
2025-09-10 02:54 35.30265 126.72075 23967 ft 487 kts 189°
2025-09-10 02:55 35.23510 126.71356 23970 ft 487 kts 189°
2025-09-10 02:55 35.16752 126.70630 23963 ft 487 kts 189°
2025-09-10 02:56 35.09995 126.69911 23972 ft 487 kts 189°
2025-09-10 02:56 35.03247 126.69191 23970 ft 487 kts 189°
2025-09-10 02:57 34.96499 126.68478 23971 ft 486 kts 189°
2025-09-10 02:57 34.93128 126.68124 23970 ft 486 kts 189°
2025-09-10 02:58 34.84155 126.67177 23970 ft 486 kts 189°
2025-09-10 02:58 34.77423 126.66461 23956 ft 486 kts 189°
2025-09-10 02:59 34.70746 126.65759 22178 ft 471 kts 189°
2025-09-10 02:59 34.64781 126.64444 21383 ft 415 kts 201°
2025-09-10 03:00 34.59169 126.62420 20890 ft 421 kts 201°
2025-09-10 03:00 34.53579 126.60407 20409 ft 417 kts 201°
2025-09-10 03:00 34.50800 126.59408 20176 ft 416 kts 201°
2025-09-10 03:01 34.45282 126.57430 19708 ft 412 kts 201°
2025-09-10 03:02 34.37090 126.54501 19018 ft 407 kts 201°
2025-09-10 03:02 34.31687 126.52563 18563 ft 403 kts 201°
2025-09-10 03:03 34.26337 126.50650 18096 ft 399 kts 201°
2025-09-10 03:03 34.21091 126.48775 17577 ft 386 kts 201°
2025-09-10 03:04 34.16108 126.47003 17060 ft 361 kts 201°
2025-09-10 03:04 34.13741 126.46163 16816 ft 349 kts 201°
2025-09-10 03:04 34.09164 126.44533 16019 ft 338 kts 201°
2025-09-10 03:05 34.04708 126.42944 15166 ft 330 kts 201°
2025-09-10 03:06 33.98182 126.40621 13927 ft 322 kts 201°
2025-09-10 03:06 33.93916 126.39107 13073 ft 319 kts 200°
2025-09-10 03:07 33.87562 126.36845 11827 ft 316 kts 200°
2025-09-10 03:07 33.85455 126.36098 11422 ft 315 kts 199°
2025-09-10 03:08 33.81293 126.34628 10616 ft 313 kts 199°
2025-09-10 03:08 33.77180 126.33177 10060 ft 302 kts 199°
2025-09-10 03:09 33.73196 126.31770 9767 ft 298 kts 199°
2025-09-10 03:09 33.67239 126.29670 8942 ft 295 kts 199°
2025-09-10 03:10 33.63318 126.28289 8152 ft 293 kts 198°
2025-09-10 03:10 33.59403 126.26907 7344 ft 294 kts 198°
2025-09-10 03:11 33.57441 126.26215 6940 ft 293 kts 198°
2025-09-10 03:11 33.53614 126.24875 6133 ft 275 kts 198°
2025-09-10 03:12 33.50115 126.23657 5325 ft 248 kts 198°
2025-09-10 03:12 33.46830 126.23088 4511 ft 241 kts 168°
2025-09-10 03:13 33.44214 126.25389 3679 ft 239 kts 118°
2025-09-10 03:13 33.42458 126.30743 2898 ft 215 kts 86°
2025-09-10 03:14 33.42698 126.32454 2765 ft 199 kts 69°
2025-09-10 03:14 33.43939 126.35112 2340 ft 167 kts 56°
2025-09-10 03:15 33.45069 126.37288 1903 ft 145 kts 56°
2025-09-10 03:15 33.46120 126.39342 1546 ft 144 kts 57°
2025-09-10 03:16 33.47182 126.41392 1158 ft 145 kts 56°
2025-09-10 03:16 33.48251 126.43462 808 ft 142 kts 58°
2025-09-10 03:16 33.48774 126.44480 605 ft 145 kts 57°
2025-09-10 03:17 33.49814 126.46495 220 ft 143 kts 57°
2025-09-10 03:18 33.50884 126.48628 94 ft 37 kts 79°
2025-09-10 03:18 33.50796 126.48941 94 ft 17 kts 147°
2025-09-10 03:19 33.50766 126.48963 95 ft 1 kts 148°
2025-09-10 03:19 33.50732 126.48988 96 ft 4 kts 148°
2025-09-10 03:20 33.50669 126.49036 94 ft 6 kts 152°
2025-09-10 03:20 33.50642 126.49054 95 ft 0 kts 151°
2025-09-10 03:20 33.50640 126.49055 95 ft 0 kts 151°